Wind_Speed
39 39 38 38 39 39 39 39 38 38 39 40 40 41 41 42 44 43 43 43 44 45 46 46 46 45 45 45 45 44 43 42 41 40 40 39 39 38
39 39 39 39 39 38 37 37 38 38 37 38 39 41 42 43 43 44 43 44 45 45 46 45 46 44 45 45 44 43 42 41 40 39 38 37 37 36
40 39 39 38 37 37 37 37 38 38 37 37 39 40 42 43 43 44 44 44 45 45 45 45 45 44 44 44 44 43 42 40 39 38 37 37 36 36
40 39 39 38 38 38 38 38 39 39 39 39 39 40 41 42 43 43 43 44 44 45 45 44 44 44 44 44 43 42 40 39 37 37 36 37 37 37
41 40 40 38 38 37 38 39 40 39 39 39 39 40 41 42 43 42 42 43 44 44 44 43 43 43 43 42 41 39 38 37 37 36 36 36 37 37
41 41 40 39 39 38 39 40 40 39 39 39 40 40 41 42 42 42 42 43 43 43 43 42 42 42 41 40 38 37 37 37 36 36 36 37 37 36
41 41 40 40 40 39 40 40 39 38 38 39 40 41 41 42 42 41 42 42 42 41 41 41 40 40 39 38 37 37 38 37 36 36 37 37 37 36
40 41 40 40 39 40 40 38 38 38 39 39 39 40 40 41 41 40 40 40 40 39 39 39 38 37 37 38 38 38 38 37 37 37 37 37 37 36
39 39 40 40 40 40 39 38 38 39 39 39 39 39 39 39 40 40 39 38 38 37 37 36 36 36 37 38 37 37 37 37 36 36 36 36 36 35
38 38 37 38 39 39 39 39 39 39 39 38 38 38 38 38 38 38 38 37 35 35 35 33 33 34 36 36 36 36 36 36 35 35 35 35 34 34
38 38 37 37 38 39 39 38 38 38 38 38 37 36 36 36 36 36 36 35 34 34 34 33 33 34 34 34 35 34 34 35 35 34 34 33 32 32
37 37 37 37 37 37 38 38 37 37 36 36 36 34 34 34 34 35 35 34 33 34 34 34 34 35 34 33 33 33 33 33 32 32 31 30 30 29
37 37 36 36 36 36 36 36 35 35 35 35 35 34 33 33 33 33 33 33 33 33 34 34 33 34 35 33 32 32 32 32 30 29 28 27 27 26
36 36 35 35 35 35 35 34 33 32 33 33 34 34 34 33 33 32 32 33 33 33 32 32 31 32 32 31 31 30 30 30 28 27 25 24 24 23
34 34 34 34 34 33 31 30 30 30 31 32 32 32 32 32 31 31 32 32 32 31 30 29 30 31 31 30 30 29 28 27 26 24 23 22 21 21
32 32 32 32 32 31 29 28 28 29 30 31 31 31 30 30 29 29 29 29 29 29 28 28 29 29 29 29 29 27 26 25 23 23 22 20 19 19
32 32 31 30 29 29 29 29 29 29 30 29 28 28 28 28 27 27 27 27 26 26 26 26 26 27 27 27 27 25 24 23 22 21 21 19 18 16
29 29 29 29 29 28 28 29 30 29 28 27 26 26 26 26 26 25 25 24 25 25 25 25 25 24 24 24 24 23 22 21 20 20 19 17 16 15
28 27 27 27 27 27 28 28 28 28 27 26 25 25 25 25 25 24 24 24 24 24 23 22 22 22 22 22 20 20 19 18 18 18 17 16 15 14
27 26 26 26 26 26 27 27 26 25 25 24 24 23 23 23 23 22 22 21 21 21 20 19 19 19 18 18 18 17 17 16 16 16 16 15 14 13
26 26 26 26 26 26 25 24 22 21 21 21 20 20 20 20 19 19 18 18 18 17 17 17 17 16 16 16 16 15 15 15 15 15 15 15 15 13
25 25 25 24 24 23 22 21 20 20 20 19 18 18 18 17 17 16 16 16 16 15 15 15 15 15 15 14 14 14 13 13 14 14 14 15 15 15
24 23 23 23 22 22 21 20 20 19 19 18 17 16 16 16 15 15 14 14 15 13 13 13 14 13 13 13 13 13 12 12 13 13 14 15 16 15
Wind_Direction
270 270 272 274 276 277 280 283 285 287 288 289 291 294 296 298 301 302 303 304 306 307 308 309 309 308 308 308 309 309 309 307 307 307 306 306 305 304
270 270 272 274 274 275 279 283 285 286 288 289 291 293 295 298 300 301 302 304 306 307 308 308 309 309 309 309 309 310 310 309 308 307 308 308 307 306
269 270 270 272 273 275 278 282 285 287 289 290 292 294 295 297 299 300 302 304 305 306 307 309 309 309 310 310 311 310 309 308 308 309 309 309 307 306
268 268 269 271 274 275 278 280 284 287 289 291 293 294 296 297 300 301 303 305 306 307 308 309 309 310 310 310 311 310 310 309 309 309 309 308 307 306
266 267 269 271 272 275 277 280 283 286 288 290 293 296 296 298 299 301 302 304 306 307 308 308 309 311 311 311 312 312 311 310 310 309 309 309 308 307
265 266 268 270 272 274 277 279 282 284 286 288 292 295 296 298 299 300 301 303 305 307 308 308 309 311 311 311 312 312 311 311 310 309 309 309 309 308
264 265 267 269 272 274 276 279 281 284 285 287 290 293 295 298 299 301 302 304 306 307 308 308 309 310 311 311 311 311 311 311 309 309 309 309 309 308
264 265 266 269 271 274 275 277 280 283 285 287 290 293 295 298 300 302 304 305 307 307 308 309 310 311 310 309 309 309 310 310 309 309 309 309 310 309
265 265 266 268 271 272 274 278 281 283 285 288 292 294 296 298 301 303 306 308 308 308 309 309 310 311 310 309 309 309 310 310 309 310 310 309 309 309
263 264 266 267 269 271 275 277 279 282 285 288 292 295 297 300 303 305 307 308 309 309 310 309 310 311 311 310 309 309 310 310 310 311 310 309 309 309
264 265 266 268 270 273 275 276 279 283 287 290 293 296 298 301 304 306 307 308 308 308 310 310 311 312 312 312 312 311 311 312 312 311 310 310 311 310
263 265 268 270 272 274 276 277 279 283 285 289 292 296 299 302 304 304 305 306 307 308 310 311 312 313 313 314 315 315 315 315 314 313 312 312 313 313
264 266 268 271 273 275 276 277 279 281 284 287 290 295 299 301 302 303 305 305 306 308 310 311 313 316 317 318 320 320 321 321 320 316 315 316 316 317
265 265 267 270 273 275 277 278 279 282 285 288 291 295 298 300 301 303 304 305 307 308 311 313 315 318 319 321 323 324 325 326 325 324 323 322 322 323
264 265 266 269 271 274 277 278 279 282 286 290 292 296 298 299 301 302 303 306 308 311 313 315 317 319 320 322 324 326 327 329 330 331 332 331 331 331
262 264 265 267 269 272 275 277 280 283 287 290 292 294 296 298 300 303 305 307 309 311 313 316 318 321 322 325 327 328 329 331 334 335 336 336 336 337
262 263 264 265 268 270 273 277 280 284 288 290 292 294 296 299 301 303 304 307 310 314 315 317 319 322 324 326 328 331 333 335 338 339 341 342 343 342
261 262 263 264 265 268 272 276 279 283 286 289 292 294 297 300 301 303 304 307 310 313 315 317 321 324 326 327 329 333 336 339 342 344 346 348 348 348
261 262 262 262 262 266 272 276 278 280 282 285 288 293 297 300 302 303 305 307 310 313 315 317 321 326 330 333 336 338 340 343 346 349 351 352 353 354
259 260 262 262 264 267 272 276 277 278 280 284 288 293 298 301 303 305 308 310 313 316 318 321 325 329 334 337 340 342 343 347 351 354 358 359 358 358
259 260 261 263 264 266 270 273 274 277 280 285 290 295 299 301 303 306 312 314 315 318 322 325 328 330 334 339 343 346 349 352 355 359 2 5 7 9
257 259 259 261 262 263 266 267 270 274 278 284 289 293 296 298 302 307 312 316 318 320 324 328 331 332 334 341 347 351 355 357 1 5 9 12 13 15
256 256 257 258 261 264 264 265 269 274 277 280 285 290 292 295 299 304 309 313 317 321 326 330 334 336 340 345 351 357 1 3 7 12 14 15 17 18
Height
5699 5700 5699 5699 5698 5698 5697 5696 5695 5694 5692 5688 5685 5681 5677 5674 5670 5665 5660 5655 5649 5643 5637 5631 5625 5618 5612 5606 5600 5594 5588 5582 5577 5572 5567 5562 5558 5553
5689 5689 5689 5689 5689 5689 5688 5686 5685 5683 5682 5679 5676 5672 5668 5664 5660 5656 5651 5646 5640 5634 5628 5622 5615 5609 5603 5596 5590 5584 5579 5573 5567 5562 5558 5553 5549 5544
5679 5680 5680 5680 5680 5679 5678 5677 5676 5674 5672 5670 5667 5663 5659 5655 5651 5646 5641 5636 5631 5624 5618 5612 5605 5599 5593 5587 5581 5575 5569 5564 5559 5554 5549 5544 5540 5536
5669 5670 5670 5670 5670 5670 5669 5668 5667 5665 5663 5661 5657 5654 5650 5646 5642 5637 5632 5626 5621 5615 5609 5602 5596 5590 5584 5578 5572 5566 5561 5555 5550 5545 5540 5536 5531 5526
5659 5660 5661 5661 5661 5661 5660 5659 5657 5655 5653 5651 5648 5645 5641 5637 5632 5627 5622 5617 5611 5605 5599 5593 5587 5580 5574 5568 5563 5557 5552 5547 5542 5537 5532 5527 5522 5518
5649 5650 5650 5651 5651 5651 5650 5649 5648 5646 5643 5641 5639 5636 5632 5627 5623 5618 5614 5608 5603 5596 5590 5584 5578 5572 5566 5560 5555 5550 5544 5539 5534 5529 5524 5519 5514 5509
5638 5639 5640 5641 5641 5641 5640 5639 5638 5636 5634 5632 5630 5627 5623 5618 5614 5609 5604 5599 5593 5587 5582 5575 5570 5564 5558 5552 5547 5542 5536 5531 5525 5520 5515 5510 5505 5501
5628 5629 5630 5630 5631 5631 5630 5629 5628 5627 5625 5623 5620 5617 5613 5609 5604 5599 5595 5590 5585 5580 5574 5568 5562 5556 5550 5545 5539 5534 5528 5523 5517 5512 5507 5502 5497 5492
5618 5619 5620 5620 5621 5621 5620 5619 5618 5617 5615 5613 5611 5607 5604 5600 5595 5591 5586 5580 5575 5570 5565 5560 5554 5548 5542 5536 5531 5526 5520 5514 5509 5503 5498 5493 5488 5483
5608 5609 5609 5610 5611 5610 5610 5609 5608 5607 5606 5604 5601 5598 5594 5590 5586 5581 5577 5572 5567 5561 5556 5552 5547 5541 5535 5529 5523 5517 5512 5506 5501 5495 5490 5484 5480 5475
5597 5598 5599 5600 5601 5601 5601 5600 5599 5598 5596 5594 5591 5588 5584 5581 5577 5573 5569 5564 5560 5555 5549 5544 5539 5534 5529 5522 5515 5509 5503 5498 5492 5487 5481 5476 5471 5467
5588 5589 5589 5590 5590 5590 5591 5590 5590 5589 5587 5585 5583 5580 5576 5572 5568 5564 5560 5556 5551 5547 5542 5537 5531 5526 5521 5516 5509 5502 5496 5490 5484 5479 5474 5469 5464 5459
5577 5579 5580 5580 5581 5581 5581 5581 5580 5579 5578 5576 5574 5572 5568 5565 5561 5557 5553 5548 5544 5539 5534 5529 5524 5518 5512 5507 5503 5496 5489 5483 5478 5472 5467 5463 5458 5453
5568 5569 5570 5571 5571 5571 5572 5572 5571 5570 5569 5568 5566 5563 5560 5557 5554 5550 5546 5542 5537 5532 5527 5521 5516 5511 5506 5501 5496 5490 5484 5478 5472 5467 5462 5458 5453 5448
5558 5559 5561 5562 5562 5563 5563 5563 5562 5562 5561 5559 5558 5555 5552 5549 5546 5543 5539 5535 5531 5526 5521 5515 5511 5505 5500 5495 5489 5484 5479 5474 5468 5463 5458 5454 5449 5445
5549 5550 5552 5553 5553 5554 5555 5555 5554 5554 5553 5552 5550 5548 5545 5542 5539 5536 5533 5529 5525 5520 5515 5511 5506 5501 5495 5490 5485 5480 5474 5470 5465 5460 5455 5451 5447 5443
5539 5541 5543 5544 5545 5546 5547 5547 5547 5546 5545 5544 5542 5540 5538 5535 5532 5530 5527 5523 5520 5516 5511 5506 5501 5496 5491 5486 5481 5476 5471 5466 5462 5458 5453 5450 5446 5442
5530 5532 5534 5536 5537 5538 5539 5539 5539 5538 5537 5536 5535 5533 5531 5529 5526 5523 5520 5517 5514 5510 5506 5502 5498 5494 5489 5484 5479 5474 5469 5464 5460 5456 5452 5449 5446 5442
5522 5524 5526 5528 5529 5530 5531 5531 5531 5530 5530 5529 5528 5526 5524 5522 5520 5517 5514 5512 5508 5505 5501 5497 5494 5490 5486 5482 5477 5472 5467 5464 5460 5456 5452 5449 5446 5443
5514 5516 5518 5520 5521 5522 5522 5523 5523 5523 5523 5522 5521 5520 5518 5516 5514 5512 5509 5506 5503 5500 5497 5494 5490 5487 5483 5480 5476 5471 5466 5463 5459 5456 5452 5449 5446 5443
5506 5508 5510 5512 5513 5514 5515 5515 5516 5516 5516 5516 5515 5514 5512 5511 5509 5507 5504 5502 5499 5497 5494 5491 5487 5484 5481 5478 5475 5471 5466 5462 5459 5456 5453 5450 5447 5444
5499 5501 5502 5504 5505 5507 5508 5509 5509 5510 5510 5510 5509 5508 5507 5506 5504 5502 5500 5498 5496 5493 5491 5488 5485 5483 5480 5477 5474 5470 5467 5463 5460 5457 5453 5451 5448 5445
5491 5493 5495 5497 5499 5500 5501 5502 5503 5504 5504 5504 5503 5503 5502 5501 5499 5498 5496 5494 5493 5490 5488 5486 5484 5481 5478 5476 5473 5470 5467 5464 5462 5459 5456 5452 5449 5447